owner,sensor,date,latitude,longitude,vertical_datum,direction_of_sea_water_velocity,sea_water_speed,upward_sea_water_velocity,qcFlag 
TABS,ioos:station:wmo:42045:1,2013-07-01T00:00:00Z,26.2168,-96.4998,2.0,272.620958,18.80967039,-99999.0,'11111222,11111222,99999999' 
TABS,ioos:station:wmo:42045:1,2013-07-01T00:30:00Z,26.2168,-96.4998,2.0,294.0792901,19.48554849,-99999.0,'11111222,11111222,99999999' 
TABS,ioos:station:wmo:42045:1,2013-07-01T01:00:00Z,26.2168,-96.4998,2.0,301.3738995,21.8203231,-99999.0,'11111222,11111222,99999999' 
TABS,ioos:station:wmo:42045:1,2013-07-01T01:30:00Z,26.2168,-96.4998,2.0,307.2391368,22.98647646,-99999.0,'11111222,11111222,99999999' 
TABS,ioos:station:wmo:42045:1,2013-07-01T02:00:00Z,26.2168,-96.4998,2.0,322.6080175,6.142255286,-99999.0,'11133222,11111222,99999999' 
TABS,ioos:station:wmo:42045:1,2013-07-01T02:30:00Z,26.2168,-96.4998,2.0,333.3237013,29.86945262,-99999.0,'11111222,11111222,99999999' 
TABS,ioos:station:wmo:42045:1,2013-07-01T03:00:00Z,26.2168,-96.4998,2.0,342.157037,31.2323198,-99999.0,'11111222,11111222,99999999' 
TABS,ioos:station:wmo:42045:1,2013-07-01T03:30:00Z,26.2168,-96.4998,2.0,343.5295048,30.26180431,-99999.0,'11111222,11111222,99999999' 
TABS,ioos:station:wmo:42045:1,2013-07-01T04:00:00Z,26.2168,-96.4998,2.0,354.6420333,37.69471183,-99999.0,'11111222,11111222,99999999' 
TABS,ioos:station:wmo:42045:1,2013-07-01T04:30:00Z,26.2168,-96.4998,2.0,359.2775727,36.4729009,-99999.0,'11111222,11144222,99999999' 
TABS,ioos:station:wmo:42045:1,2013-07-01T05:00:00Z,26.2168,-96.4998,2.0,0.191354522,35.97020017,-99999.0,'11111222,11111222,99999999' 
TABS,ioos:station:wmo:42045:1,2013-07-01T05:30:00Z,26.2168,-96.4998,2.0,9.30640489,39.8241585,-99999.0,'11111222,11111222,99999999' 
TABS,ioos:station:wmo:42045:1,2013-07-01T06:00:00Z,26.2168,-96.4998,2.0,18.24731955,41.48614347,-99999.0,'11111222,11111222,99999999' 
TABS,ioos:station:wmo:42045:1,2013-07-01T06:30:00Z,26.2168,-96.4998,2.0,23.20067503,39.01508042,-99999.0,'11111222,11111222,99999999' 
TABS,ioos:station:wmo:42045:1,2013-07-01T07:00:00Z,26.2168,-96.4998,2.0,29.25262809,38.2475228,-99999.0,'11111222,11111222,99999999' 
TABS,ioos:station:wmo:42045:1,2013-07-01T07:30:00Z,26.2168,-96.4998,2.0,29.99137672,37.79001191,-99999.0,'11111222,11111222,99999999' 
TABS,ioos:station:wmo:42045:1,2013-07-01T08:00:00Z,26.2168,-96.4998,2.0,39.94661062,34.35752028,-99999.0,'11111222,11111222,99999999' 
TABS,ioos:station:wmo:42045:1,2013-07-01T08:30:00Z,26.2168,-96.4998,2.0,42.41313694,35.40556453,-99999.0,'11111222,11111222,99999999' 
TABS,ioos:station:wmo:42045:1,2013-07-01T09:00:00Z,26.2168,-96.4998,2.0,70.32931328,25.07320682,-99999.0,'11111222,11111222,99999999' 
TABS,ioos:station:wmo:42045:1,2013-07-01T09:30:00Z,26.2168,-96.4998,2.0,58.97989477,27.86510362,-99999.0,'11111222,11111222,99999999' 
TABS,ioos:station:wmo:42045:1,2013-07-01T10:00:00Z,26.2168,-96.4998,2.0,53.35032444,28.63021132,-99999.0,'11111222,11111222,99999999' 
TABS,ioos:station:wmo:42045:1,2013-07-01T10:30:00Z,26.2168,-96.4998,2.0,59.10953957,25.49671547,-99999.0,'11111222,11111222,99999999' 
TABS,ioos:station:wmo:42045:1,2013-07-01T11:00:00Z,26.2168,-96.4998,2.0,51.20529973,19.88722203,-99999.0,'11111222,11111222,99999999' 
TABS,ioos:station:wmo:42045:1,2013-07-01T11:30:00Z,26.2168,-96.4998,2.0,66.40684035,26.30918091,-99999.0,'11111222,11111222,99999999' 
TABS,ioos:station:wmo:42045:1,2013-07-01T12:00:00Z,26.2168,-96.4998,2.0,63.11397409,25.54076937,-99999.0,'11111222,11111222,99999999' 
TABS,ioos:station:wmo:42045:1,2013-07-01T12:30:00Z,26.2168,-96.4998,2.0,68.3117576,23.5146465,-99999.0,'11111222,11111222,99999999' 
TABS,ioos:station:wmo:42045:1,2013-07-01T13:00:00Z,26.2168,-96.4998,2.0,72.71963309,22.28593278,-99999.0,'11111222,11111222,99999999' 
TABS,ioos:station:wmo:42045:1,2013-07-01T13:30:00Z,26.2168,-96.4998,2.0,88.79670676,21.90483052,-99999.0,'11111222,11111222,99999999' 
TABS,ioos:station:wmo:42045:1,2013-07-01T14:00:00Z,26.2168,-96.4998,2.0,89.44528771,21.69101657,-99999.0,'11111222,11111222,99999999' 
TABS,ioos:station:wmo:42045:1,2013-07-01T14:30:00Z,26.2168,-96.4998,2.0,99.97232382,21.42368082,-99999.0,'11111222,11111222,99999999' 
TABS,ioos:station:wmo:42045:1,2013-07-01T15:00:00Z,26.2168,-96.4998,2.0,114.8165806,18.32192675,-99999.0,'11111222,11111222,99999999' 
TABS,ioos:station:wmo:42045:1,2013-07-01T15:30:00Z,26.2168,-96.4998,2.0,120.5249818,19.03861602,-99999.0,'11111222,11111222,99999999' 
TABS,ioos:station:wmo:42045:1,2013-07-01T16:00:00Z,26.2168,-96.4998,2.0,118.3508475,17.79432775,-99999.0,'11111222,11111222,99999999' 
TABS,ioos:station:wmo:42045:1,2013-07-01T16:30:00Z,26.2168,-96.4998,2.0,120.8013739,16.34559574,-99999.0,'11111222,11111222,99999999' 
TABS,ioos:station:wmo:42045:1,2013-07-01T17:00:00Z,26.2168,-96.4998,2.0,125.0309871,16.82866602,-99999.0,'11111222,11111222,99999999' 
TABS,ioos:station:wmo:42045:1,2013-07-01T17:30:00Z,26.2168,-96.4998,2.0,125.8168831,16.21673827,-99999.0,'11111222,11111222,99999999' 
TABS,ioos:station:wmo:42045:1,2013-07-01T18:00:00Z,26.2168,-96.4998,2.0,137.6672691,15.04231698,-99999.0,'11111222,11111222,99999999' 
TABS,ioos:station:wmo:42045:1,2013-07-01T18:30:00Z,26.2168,-96.4998,2.0,155.0741274,15.94521872,-99999.0,'11111222,11111222,99999999' 
TABS,ioos:station:wmo:42045:1,2013-07-01T19:00:00Z,26.2168,-96.4998,2.0,158.0581154,11.37387357,-99999.0,'11111222,11111222,99999999' 
TABS,ioos:station:wmo:42045:1,2013-07-01T19:30:00Z,26.2168,-96.4998,2.0,158.0536329,9.5521987,-99999.0,'11133222,11111222,99999999' 
TABS,ioos:station:wmo:42045:1,2013-07-01T20:00:00Z,26.2168,-96.4998,2.0,172.4959812,11.25639818,-99999.0,'11111222,11111222,99999999' 
TABS,ioos:station:wmo:42045:1,2013-07-01T20:30:00Z,26.2168,-96.4998,2.0,182.3884895,8.637505427,-99999.0,'11133222,11111222,99999999' 
TABS,ioos:station:wmo:42045:1,2013-07-01T21:00:00Z,26.2168,-96.4998,2.0,196.6372658,9.779412048,-99999.0,'11133222,11111222,99999999' 
TABS,ioos:station:wmo:42045:1,2013-07-01T21:30:00Z,26.2168,-96.4998,2.0,206.5361594,8.953217299,-99999.0,'11133222,11111222,99999999' 
TABS,ioos:station:wmo:42045:1,2013-07-01T22:00:00Z,26.2168,-96.4998,2.0,216.6740535,9.376054607,-99999.0,'11133222,11111222,99999999' 
TABS,ioos:station:wmo:42045:1,2013-07-01T22:30:00Z,26.2168,-96.4998,2.0,237.2001245,6.959554583,-99999.0,'11133222,11111222,99999999' 
TABS,ioos:station:wmo:42045:1,2013-07-01T23:00:00Z,26.2168,-96.4998,2.0,232.6608281,6.842229169,-99999.0,'11133222,11111222,99999999' 
TABS,ioos:station:wmo:42045:1,2013-07-01T23:30:00Z,26.2168,-96.4998,2.0,224.3645036,6.37849512,-99999.0,'11133222,11111222,99999999' 
TABS,ioos:station:wmo:42045:1,2013-07-02T00:00:00Z,26.2168,-96.4998,2.0,246.7001703,5.966573556,-99999.0,'11133222,11111222,99999999' 
TABS,ioos:station:wmo:42045:1,2013-07-02T00:30:00Z,26.2168,-96.4998,2.0,258.7656821,7.391623638,-99999.0,'11133222,11111222,99999999' 
TABS,ioos:station:wmo:42045:1,2013-07-02T01:00:00Z,26.2168,-96.4998,2.0,288.3459419,10.13511223,-99999.0,'11111222,11111222,99999999' 
TABS,ioos:station:wmo:42045:1,2013-07-02T01:30:00Z,26.2168,-96.4998,2.0,307.0598029,12.69406948,-99999.0,'11111222,11111222,99999999' 
TABS,ioos:station:wmo:42045:1,2013-07-02T02:00:00Z,26.2168,-96.4998,2.0,305.0767851,11.11944693,-99999.0,'11111222,11111222,99999999' 
TABS,ioos:station:wmo:42045:1,2013-07-02T02:30:00Z,26.2168,-96.4998,2.0,315.5782616,10.51521279,-99999.0,'11111222,11111222,99999999' 
TABS,ioos:station:wmo:42045:1,2013-07-02T03:00:00Z,26.2168,-96.4998,2.0,324.1940932,10.66583799,-99999.0,'11111222,11111222,99999999' 
TABS,ioos:station:wmo:42045:1,2013-07-02T03:30:00Z,26.2168,-96.4998,2.0,343.583313,16.52366182,-99999.0,'11111222,11111222,99999999' 
TABS,ioos:station:wmo:42045:1,2013-07-02T04:00:00Z,26.2168,-96.4998,2.0,345.1965563,13.5807879,-99999.0,'11111222,11111222,99999999' 
TABS,ioos:station:wmo:42045:1,2013-07-02T04:30:00Z,26.2168,-96.4998,2.0,345.3690508,11.67871996,-99999.0,'11111222,11111222,99999999' 
TABS,ioos:station:wmo:42045:1,2013-07-02T05:00:00Z,26.2168,-96.4998,2.0,353.1636092,14.78512766,-99999.0,'11111222,11111222,99999999' 
TABS,ioos:station:wmo:42045:1,2013-07-02T05:30:00Z,26.2168,-96.4998,2.0,4.593438502,20.10456913,-99999.0,'11111222,11111222,99999999' 
TABS,ioos:station:wmo:42045:1,2013-07-02T06:00:00Z,26.2168,-96.4998,2.0,5.727122318,20.94453867,-99999.0,'11111222,11111222,99999999' 
TABS,ioos:station:wmo:42045:1,2013-07-02T06:30:00Z,26.2168,-96.4998,2.0,25.79139388,25.16700419,-99999.0,'11111222,11111222,99999999' 
TABS,ioos:station:wmo:42045:1,2013-07-02T07:00:00Z,26.2168,-96.4998,2.0,28.98470307,22.24634801,-99999.0,'11111222,11111222,99999999' 
TABS,ioos:station:wmo:42045:1,2013-07-02T07:30:00Z,26.2168,-96.4998,2.0,41.01516107,18.9255066,-99999.0,'11111222,11111222,99999999' 
TABS,ioos:station:wmo:42045:1,2013-07-02T08:00:00Z,26.2168,-96.4998,2.0,33.09214529,17.27153149,-99999.0,'11111222,11111222,99999999' 
TABS,ioos:station:wmo:42045:1,2013-07-02T08:30:00Z,26.2168,-96.4998,2.0,45.42300606,23.95035908,-99999.0,'11111222,11111222,99999999' 
TABS,ioos:station:wmo:42045:1,2013-07-02T09:00:00Z,26.2168,-96.4998,2.0,40.83103079,24.89947791,-99999.0,'11111222,11111222,99999999' 
TABS,ioos:station:wmo:42045:1,2013-07-02T09:30:00Z,26.2168,-96.4998,2.0,52.96562981,23.67609765,-99999.0,'11111222,11111222,99999999' 
TABS,ioos:station:wmo:42045:1,2013-07-02T10:00:00Z,26.2168,-96.4998,2.0,46.33812834,22.71139141,-99999.0,'11111222,11111222,99999999' 
TABS,ioos:station:wmo:42045:1,2013-07-02T10:30:00Z,26.2168,-96.4998,2.0,69.50446607,19.96371959,-99999.0,'11111222,11111222,99999999' 
TABS,ioos:station:wmo:42045:1,2013-07-02T11:00:00Z,26.2168,-96.4998,2.0,77.26192696,15.73732506,-99999.0,'11111222,11111222,99999999' 
TABS,ioos:station:wmo:42045:1,2013-07-02T11:30:00Z,26.2168,-96.4998,2.0,56.83486981,26.34104402,-99999.0,'11111222,11111222,99999999' 
TABS,ioos:station:wmo:42045:1,2013-07-02T12:00:00Z,26.2168,-96.4998,2.0,58.48980401,26.25076761,-99999.0,'11111222,11111222,99999999' 
TABS,ioos:station:wmo:42045:1,2013-07-02T12:30:00Z,26.2168,-96.4998,2.0,54.62504208,32.35301068,-99999.0,'11111222,11111222,99999999' 
TABS,ioos:station:wmo:42045:1,2013-07-02T13:00:00Z,26.2168,-96.4998,2.0,56.72339944,33.4437453,-99999.0,'11111222,11111222,99999999' 
TABS,ioos:station:wmo:42045:1,2013-07-02T13:30:00Z,26.2168,-96.4998,2.0,66.93049299,34.40105958,-99999.0,'11111222,11111222,99999999' 
TABS,ioos:station:wmo:42045:1,2013-07-02T14:00:00Z,26.2168,-96.4998,2.0,71.93766791,31.12379476,-99999.0,'11111222,11111222,99999999' 
TABS,ioos:station:wmo:42045:1,2013-07-02T14:30:00Z,26.2168,-96.4998,2.0,75.67568093,28.93971665,-99999.0,'11111222,11111222,99999999' 
TABS,ioos:station:wmo:42045:1,2013-07-02T15:00:00Z,26.2168,-96.4998,2.0,81.78776203,33.53386646,-99999.0,'11111222,11111222,99999999' 
TABS,ioos:station:wmo:42045:1,2013-07-02T15:30:00Z,26.2168,-96.4998,2.0,86.45503995,25.06796561,-99999.0,'11111222,11111222,99999999' 
TABS,ioos:station:wmo:42045:1,2013-07-02T16:00:00Z,26.2168,-96.4998,2.0,97.24916535,25.75587312,-99999.0,'11111222,11111222,99999999' 
TABS,ioos:station:wmo:42045:1,2013-07-02T16:30:00Z,26.2168,-96.4998,2.0,109.7463162,29.15434959,-99999.0,'11111222,11111222,99999999' 
TABS,ioos:station:wmo:42045:1,2013-07-02T17:00:00Z,26.2168,-96.4998,2.0,114.2202781,28.20254067,-99999.0,'11111222,11111222,99999999' 
TABS,ioos:station:wmo:42045:1,2013-07-02T17:30:00Z,26.2168,-96.4998,2.0,120.9878901,28.41560311,-99999.0,'11111222,11111222,99999999' 
TABS,ioos:station:wmo:42045:1,2013-07-02T18:00:00Z,26.2168,-96.4998,2.0,126.7746504,26.49203654,-99999.0,'11111222,11111222,99999999' 
TABS,ioos:station:wmo:42045:1,2013-07-02T18:30:00Z,26.2168,-96.4998,2.0,135.3140125,25.79564304,-99999.0,'11111222,11111222,99999999' 
TABS,ioos:station:wmo:42045:1,2013-07-02T19:00:00Z,26.2168,-96.4998,2.0,135.0852832,23.72345885,-99999.0,'11111222,11111222,99999999' 
TABS,ioos:station:wmo:42045:1,2013-07-02T19:30:00Z,26.2168,-96.4998,2.0,139.1823809,24.43196676,-99999.0,'11111222,11111222,99999999' 
TABS,ioos:station:wmo:42045:1,2013-07-02T20:00:00Z,26.2168,-96.4998,2.0,146.2189995,22.75105712,-99999.0,'11111222,11111222,99999999' 
TABS,ioos:station:wmo:42045:1,2013-07-02T20:30:00Z,26.2168,-96.4998,2.0,147.6633144,19.25624314,-99999.0,'11111222,11111222,99999999' 
TABS,ioos:station:wmo:42045:1,2013-07-02T21:00:00Z,26.2168,-96.4998,2.0,168.0658305,16.92582642,-99999.0,'11111222,11111222,99999999' 
TABS,ioos:station:wmo:42045:1,2013-07-02T21:30:00Z,26.2168,-96.4998,2.0,172.3007325,20.30302441,-99999.0,'11111222,11111222,99999999' 
TABS,ioos:station:wmo:42045:1,2013-07-02T22:00:00Z,26.2168,-96.4998,2.0,198.1322692,18.57231542,-99999.0,'11111222,11111222,99999999' 
TABS,ioos:station:wmo:42045:1,2013-07-02T22:30:00Z,26.2168,-96.4998,2.0,209.1364346,13.55527941,-99999.0,'11111222,11111222,99999999' 
TABS,ioos:station:wmo:42045:1,2013-07-02T23:00:00Z,26.2168,-96.4998,2.0,216.4202326,12.75039215,-99999.0,'11111222,11111222,99999999' 
TABS,ioos:station:wmo:42045:1,2013-07-02T23:30:00Z,26.2168,-96.4998,2.0,235.0687235,11.52659967,-99999.0,'11111222,11111222,99999999' 
TABS,ioos:station:wmo:42045:1,2013-07-03T00:00:00Z,26.2168,-96.4998,2.0,244.6440507,8.686823355,-99999.0,'11133222,11111222,99999999' 
TABS,ioos:station:wmo:42045:1,2013-07-03T00:30:00Z,26.2168,-96.4998,2.0,272.0676817,7.484871408,-99999.0,'11133222,11111222,99999999' 
TABS,ioos:station:wmo:42045:1,2013-07-03T01:00:00Z,26.2168,-96.4998,2.0,267.6045792,7.896898125,-99999.0,'11133222,11111222,99999999' 
TABS,ioos:station:wmo:42045:1,2013-07-03T01:30:00Z,26.2168,-96.4998,2.0,289.3920051,9.848705499,-99999.0,'11133222,11111222,99999999' 
TABS,ioos:station:wmo:42045:1,2013-07-03T02:00:00Z,26.2168,-96.4998,2.0,301.3962241,8.868444057,-99999.0,'11133222,11111222,99999999' 
TABS,ioos:station:wmo:42045:1,2013-07-03T02:30:00Z,26.2168,-96.4998,2.0,326.7757494,9.216647981,-99999.0,'11133222,11111222,99999999' 
TABS,ioos:station:wmo:42045:1,2013-07-03T03:00:00Z,26.2168,-96.4998,2.0,317.4780717,11.94005444,-99999.0,'11111222,11111222,99999999' 
TABS,ioos:station:wmo:42045:1,2013-07-03T03:30:00Z,26.2168,-96.4998,2.0,323.693784,14.03467848,-99999.0,'11111222,11111222,99999999' 
TABS,ioos:station:wmo:42045:1,2013-07-03T04:00:00Z,26.2168,-96.4998,2.0,328.5470411,16.05971357,-99999.0,'11111222,11111222,99999999' 
TABS,ioos:station:wmo:42045:1,2013-07-03T04:30:00Z,26.2168,-96.4998,2.0,338.7338842,18.69290775,-99999.0,'11111222,11111222,99999999' 
TABS,ioos:station:wmo:42045:1,2013-07-03T05:00:00Z,26.2168,-96.4998,2.0,345.8444562,16.27417586,-99999.0,'11111222,11111222,99999999' 
TABS,ioos:station:wmo:42045:1,2013-07-03T05:30:00Z,26.2168,-96.4998,2.0,345.5238773,17.68136873,-99999.0,'11111222,11111222,99999999' 
TABS,ioos:station:wmo:42045:1,2013-07-03T06:00:00Z,26.2168,-96.4998,2.0,347.6750797,32.65257876,-99999.0,'11111222,11111222,99999999' 
TABS,ioos:station:wmo:42045:1,2013-07-03T06:30:00Z,26.2168,-96.4998,2.0,355.0428067,30.2029833,-99999.0,'11111222,11111222,99999999' 
TABS,ioos:station:wmo:42045:1,2013-07-03T07:00:00Z,26.2168,-96.4998,2.0,357.8949633,32.12168115,-99999.0,'11111222,11111222,99999999' 
TABS,ioos:station:wmo:42045:1,2013-07-03T07:30:00Z,26.2168,-96.4998,2.0,8.314732849,29.87400208,-99999.0,'11111222,11111222,99999999' 
TABS,ioos:station:wmo:42045:1,2013-07-03T08:00:00Z,26.2168,-96.4998,2.0,13.2384962,29.78141199,-99999.0,'11111222,11111222,99999999' 
TABS,ioos:station:wmo:42045:1,2013-07-03T08:30:00Z,26.2168,-96.4998,2.0,18.99682019,27.09569708,-99999.0,'11111222,11111222,99999999' 
TABS,ioos:station:wmo:42045:1,2013-07-03T09:00:00Z,26.2168,-96.4998,2.0,25.20251306,24.63501979,-99999.0,'11111222,11111222,99999999' 
TABS,ioos:station:wmo:42045:1,2013-07-03T09:30:00Z,26.2168,-96.4998,2.0,30.85906101,24.36998974,-99999.0,'11111222,11111222,99999999' 
TABS,ioos:station:wmo:42045:1,2013-07-03T10:00:00Z,26.2168,-96.4998,2.0,33.65868778,20.17167569,-99999.0,'11111222,11111222,99999999' 
TABS,ioos:station:wmo:42045:1,2013-07-03T10:30:00Z,26.2168,-96.4998,2.0,26.78537811,20.94763949,-99999.0,'11111222,11111222,99999999' 
TABS,ioos:station:wmo:42045:1,2013-07-03T11:00:00Z,26.2168,-96.4998,2.0,38.65992831,15.62362314,-99999.0,'11111222,11111222,99999999' 
TABS,ioos:station:wmo:42045:1,2013-07-03T11:30:00Z,26.2168,-96.4998,2.0,33.40467509,21.70568819,-99999.0,'11111222,11111222,99999999' 
TABS,ioos:station:wmo:42045:1,2013-07-03T12:00:00Z,26.2168,-96.4998,2.0,37.95924732,20.30566916,-99999.0,'11111222,11111222,99999999' 
TABS,ioos:station:wmo:42045:1,2013-07-03T12:30:00Z,26.2168,-96.4998,2.0,42.30833686,18.97139426,-99999.0,'11111222,11111222,99999999' 
TABS,ioos:station:wmo:42045:1,2013-07-03T13:00:00Z,26.2168,-96.4998,2.0,56.52300524,19.3979999,-99999.0,'11111222,11111222,99999999' 
TABS,ioos:station:wmo:42045:1,2013-07-03T13:30:00Z,26.2168,-96.4998,2.0,51.63806845,17.1278078,-99999.0,'11111222,11111222,99999999' 
TABS,ioos:station:wmo:42045:1,2013-07-03T14:00:00Z,26.2168,-96.4998,2.0,57.8018066,14.16907195,-99999.0,'11111222,11111222,99999999' 
TABS,ioos:station:wmo:42045:1,2013-07-03T14:30:00Z,26.2168,-96.4998,2.0,81.19772384,12.41623534,-99999.0,'11111222,11111222,99999999' 
TABS,ioos:station:wmo:42045:1,2013-07-03T15:00:00Z,26.2168,-96.4998,2.0,78.74211785,12.95935955,-99999.0,'11111222,11111222,99999999' 
TABS,ioos:station:wmo:42045:1,2013-07-03T15:30:00Z,26.2168,-96.4998,2.0,100.7156935,11.72445308,-99999.0,'11111222,11111222,99999999' 
TABS,ioos:station:wmo:42045:1,2013-07-03T16:00:00Z,26.2168,-96.4998,2.0,87.52580132,11.35058148,-99999.0,'11111222,11111222,99999999' 
TABS,ioos:station:wmo:42045:1,2013-07-03T16:30:00Z,26.2168,-96.4998,2.0,89.34770584,10.54068309,-99999.0,'11111222,11111222,99999999' 
TABS,ioos:station:wmo:42045:1,2013-07-03T17:00:00Z,26.2168,-96.4998,2.0,93.73341157,6.143036708,-99999.0,'11133222,11111222,99999999' 
TABS,ioos:station:wmo:42045:1,2013-07-03T17:30:00Z,26.2168,-96.4998,2.0,76.87264317,8.40976813,-99999.0,'11133222,11111222,99999999' 
TABS,ioos:station:wmo:42045:1,2013-07-03T18:00:00Z,26.2168,-96.4998,2.0,103.7014785,4.981766755,-99999.0,'11133222,11111222,99999999' 
TABS,ioos:station:wmo:42045:1,2013-07-03T18:30:00Z,26.2168,-96.4998,2.0,95.12817905,7.048212539,-99999.0,'11133222,11111222,99999999' 
TABS,ioos:station:wmo:42045:1,2013-07-03T19:00:00Z,26.2168,-96.4998,2.0,91.59796193,9.323625904,-99999.0,'11133222,11111222,99999999' 
TABS,ioos:station:wmo:42045:1,2013-07-03T19:30:00Z,26.2168,-96.4998,2.0,79.87535202,8.532877592,-99999.0,'11133222,11111222,99999999' 
TABS,ioos:station:wmo:42045:1,2013-07-03T20:00:00Z,26.2168,-96.4998,2.0,73.98459784,5.618051264,-99999.0,'11133222,11111222,99999999' 
TABS,ioos:station:wmo:42045:1,2013-07-03T20:30:00Z,26.2168,-96.4998,2.0,50.31860549,4.729693436,-99999.0,'11133222,11111222,99999999' 
TABS,ioos:station:wmo:42045:1,2013-07-03T21:00:00Z,26.2168,-96.4998,2.0,20.390793,3.243223705,-99999.0,'11133222,11111222,99999999' 
TABS,ioos:station:wmo:42045:1,2013-07-03T21:30:00Z,26.2168,-96.4998,2.0,5.419154784,2.541357905,-99999.0,'11133222,11111222,99999999' 
TABS,ioos:station:wmo:42045:1,2013-07-03T22:00:00Z,26.2168,-96.4998,2.0,342.5822804,1.603527362,-99999.0,'11133222,11111222,99999999' 
TABS,ioos:station:wmo:42045:1,2013-07-03T22:30:00Z,26.2168,-96.4998,2.0,289.959723,6.181278185,-99999.0,'11133222,11111222,99999999' 
TABS,ioos:station:wmo:42045:1,2013-07-03T23:00:00Z,26.2168,-96.4998,2.0,293.986582,7.355168251,-99999.0,'11133222,11111222,99999999' 
TABS,ioos:station:wmo:42045:1,2013-07-03T23:30:00Z,26.2168,-96.4998,2.0,284.7690432,9.297150101,-99999.0,'11133222,11111222,99999999' 
TABS,ioos:station:wmo:42045:1,2013-07-04T00:00:00Z,26.2168,-96.4998,2.0,298.6906404,9.165238677,-99999.0,'11133222,11111222,99999999' 
TABS,ioos:station:wmo:42045:1,2013-07-04T00:30:00Z,26.2168,-96.4998,2.0,314.4841527,7.064283403,-99999.0,'11133222,11111222,99999999' 
TABS,ioos:station:wmo:42045:1,2013-07-04T01:00:00Z,26.2168,-96.4998,2.0,321.0544934,7.508928019,-99999.0,'11133222,11111222,99999999' 
TABS,ioos:station:wmo:42045:1,2013-07-04T01:30:00Z,26.2168,-96.4998,2.0,308.4645306,5.031947933,-99999.0,'11133222,11111222,99999999' 
TABS,ioos:station:wmo:42045:1,2013-07-04T02:00:00Z,26.2168,-96.4998,2.0,82.47619716,2.673013281,-99999.0,'11133222,11111222,99999999' 
TABS,ioos:station:wmo:42045:1,2013-07-04T02:30:00Z,26.2168,-96.4998,2.0,311.7693133,7.025667228,-99999.0,'11133222,11111222,99999999' 
TABS,ioos:station:wmo:42045:1,2013-07-04T03:00:00Z,26.2168,-96.4998,2.0,305.794945,9.591689111,-99999.0,'11133222,11111222,99999999' 
TABS,ioos:station:wmo:42045:1,2013-07-04T03:30:00Z,26.2168,-96.4998,2.0,339.6631964,8.57449707,-99999.0,'11133222,11111222,99999999' 
TABS,ioos:station:wmo:42045:1,2013-07-04T04:00:00Z,26.2168,-96.4998,2.0,320.1296423,9.016362903,-99999.0,'11133222,11111222,99999999' 
TABS,ioos:station:wmo:42045:1,2013-07-04T04:30:00Z,26.2168,-96.4998,2.0,323.0826825,9.606003331,-99999.0,'11133222,11111222,99999999' 
TABS,ioos:station:wmo:42045:1,2013-07-04T05:00:00Z,26.2168,-96.4998,2.0,340.8014081,10.67363574,-99999.0,'11111222,11111222,99999999' 
TABS,ioos:station:wmo:42045:1,2013-07-04T05:30:00Z,26.2168,-96.4998,2.0,340.3329906,11.46907145,-99999.0,'11111222,11111222,99999999' 
TABS,ioos:station:wmo:42045:1,2013-07-04T06:00:00Z,26.2168,-96.4998,2.0,342.0600735,9.155135171,-99999.0,'11133222,11111222,99999999' 
TABS,ioos:station:wmo:42045:1,2013-07-04T06:30:00Z,26.2168,-96.4998,2.0,2.550784891,11.01090823,-99999.0,'11111222,11111222,99999999' 
TABS,ioos:station:wmo:42045:1,2013-07-04T07:00:00Z,26.2168,-96.4998,2.0,354.5457055,9.573348422,-99999.0,'11133222,11111222,99999999' 
TABS,ioos:station:wmo:42045:1,2013-07-04T07:30:00Z,26.2168,-96.4998,2.0,9.125653519,6.431399537,-99999.0,'11133222,11111222,99999999' 
TABS,ioos:station:wmo:42045:1,2013-07-04T08:00:00Z,26.2168,-96.4998,2.0,41.33779875,8.523901689,-99999.0,'11133222,11111222,99999999' 
TABS,ioos:station:wmo:42045:1,2013-07-04T08:30:00Z,26.2168,-96.4998,2.0,28.16099975,12.2047204,-99999.0,'11111222,11111222,99999999' 
TABS,ioos:station:wmo:42045:1,2013-07-04T09:00:00Z,26.2168,-96.4998,2.0,41.23867655,12.28770117,-99999.0,'11111222,11111222,99999999' 
TABS,ioos:station:wmo:42045:1,2013-07-04T09:30:00Z,26.2168,-96.4998,2.0,34.69962574,8.343985858,-99999.0,'11133222,11111222,99999999' 
TABS,ioos:station:wmo:42045:1,2013-07-04T10:00:00Z,26.2168,-96.4998,2.0,35.62134166,12.75702943,-99999.0,'11111222,11111222,99999999' 
TABS,ioos:station:wmo:42045:1,2013-07-04T10:30:00Z,26.2168,-96.4998,2.0,45.35708283,13.61914094,-99999.0,'11111222,11111222,99999999' 
TABS,ioos:station:wmo:42045:1,2013-07-04T11:00:00Z,26.2168,-96.4998,2.0,24.65902774,8.60467896,-99999.0,'11133222,11111222,99999999' 
TABS,ioos:station:wmo:42045:1,2013-07-04T11:30:00Z,26.2168,-96.4998,2.0,28.2950358,19.85191427,-99999.0,'11111222,11111222,99999999' 
TABS,ioos:station:wmo:42045:1,2013-07-04T12:00:00Z,26.2168,-96.4998,2.0,34.17267744,22.39681451,-99999.0,'11111222,11111222,99999999' 
TABS,ioos:station:wmo:42045:1,2013-07-04T12:30:00Z,26.2168,-96.4998,2.0,40.3345929,24.68912311,-99999.0,'11111222,11111222,99999999' 
TABS,ioos:station:wmo:42045:1,2013-07-04T13:00:00Z,26.2168,-96.4998,2.0,42.98373498,22.91030336,-99999.0,'11111222,11111222,99999999' 
TABS,ioos:station:wmo:42045:1,2013-07-04T13:30:00Z,26.2168,-96.4998,2.0,48.36885693,20.69742496,-99999.0,'11111222,11111222,99999999' 
TABS,ioos:station:wmo:42045:1,2013-07-04T14:00:00Z,26.2168,-96.4998,2.0,50.86482897,20.1377382,-99999.0,'11111222,11111222,99999999' 
TABS,ioos:station:wmo:42045:1,2013-07-04T14:30:00Z,26.2168,-96.4998,2.0,56.28760681,21.27830115,-99999.0,'11111222,11111222,99999999' 
TABS,ioos:station:wmo:42045:1,2013-07-04T15:00:00Z,26.2168,-96.4998,2.0,65.47039661,18.25783394,-99999.0,'11111222,11111222,99999999' 
TABS,ioos:station:wmo:42045:1,2013-07-04T15:30:00Z,26.2168,-96.4998,2.0,88.23133779,16.84802659,-99999.0,'11111222,11111222,99999999' 
TABS,ioos:station:wmo:42045:1,2013-07-04T16:00:00Z,26.2168,-96.4998,2.0,109.2882076,15.07624953,-99999.0,'11111222,11111222,99999999' 